| time (UTC) | temp F | wind direction | speed MPH | gust MPH | rain 1hr in | rain 24hr in | rain mn in | humidity % | barometer mb |
| 20260904161611 | 90 | 176 | 3.0 | 8.0 | 0.00 | 0.00 | 0.00 | 56 | 1009.0 |
| 20260904160057 | 89 | 150 | 3.0 | 12.0 | 0.00 | 0.00 | 0.00 | 58 | 1009.0 |
| 20260904154552 | 87 | 210 | 1.0 | 7.0 | 0.00 | 0.00 | 0.00 | 62 | 1008.9 |
| 20260904153056 | 85 | 111 | 2.0 | 11.0 | 0.00 | 0.00 | 0.00 | 64 | 1008.9 |
| 20260904151548 | 84 | 229 | 3.0 | 9.0 | 0.00 | 0.00 | 0.00 | 66 | 1009.0 |
| 20260904150046 | 82 | 87 | 3.0 | 10.0 | 0.00 | 0.00 | 0.00 | 69 | 1009.0 |
| 20260904144537 | 81 | 288 | 3.0 | 8.0 | 0.00 | 0.00 | 0.00 | 71 | 1008.9 |
| 20260904143036 | 80 | 251 | 2.0 | 8.0 | 0.00 | 0.00 | 0.00 | 73 | 1008.9 |
| 20260904141538 | 79 | 242 | 4.0 | 9.0 | 0.00 | 0.00 | 0.00 | 74 | 1008.9 |
| 20260904140035 | 79 | 229 | 2.0 | 8.0 | 0.00 | 0.00 | 0.00 | 75 | 1009.0 |
| 20260904134533 | 78 | 219 | 2.0 | 7.0 | 0.00 | 0.00 | 0.00 | 75 | 1009.0 |
| 20260904133033 | 78 | 281 | 2.0 | 6.0 | 0.00 | 0.00 | 0.00 | 76 | 1008.9 |
| 20260904131531 | 77 | 275 | 0.0 | 8.0 | 0.00 | 0.00 | 0.00 | 77 | 1008.8 |
| 20260904130035 | 76 | 191 | 3.0 | 10.0 | 0.00 | 0.00 | 0.00 | 77 | 1008.7 |
| 20260904124529 | 76 | 285 | 1.0 | 7.0 | 0.00 | 0.00 | 0.00 | 78 | 1008.5 |
| 20260904123027 | 76 | 239 | 1.0 | 6.0 | 0.00 | 0.00 | 0.00 | 78 | 1008.4 |
| 20260904121528 | 76 | 202 | 1.0 | 6.0 | 0.00 | 0.00 | 0.00 | 78 | 1008.3 |
| 20260904120024 | 76 | 224 | 2.0 | 7.0 | 0.00 | 0.00 | 0.00 | 77 | 1008.3 |
| 20260904114527 | 76 | 159 | 2.0 | 9.0 | 0.00 | 0.00 | 0.00 | 77 | 1008.1 |
| 20260904113035 | 76 | 71 | 1.0 | 6.0 | 0.00 | 0.00 | 0.00 | 77 | 1008.1 |
| 20260904111522 | 76 | 235 | 1.0 | 5.0 | 0.00 | 0.00 | 0.00 | 76 | 1008.2 |
| 20260904110022 | 76 | 154 | 1.0 | 5.0 | 0.00 | 0.00 | 0.00 | 76 | 1008.1 |
| 20260904104520 | 76 | 127 | 1.0 | 6.0 | 0.00 | 0.00 | 0.00 | 76 | 1008.0 |
| 20260904103019 | 77 | 124 | 2.0 | 7.0 | 0.00 | 0.00 | 0.00 | 76 | 1007.9 |
| 20260904101518 | 77 | 261 | 2.0 | 5.0 | 0.00 | 0.00 | 0.00 | 76 | 1008.1 |
| 20260904100016 | 77 | 231 | 2.0 | 6.0 | 0.00 | 0.00 | 0.00 | 76 | 1008.1 |
| 20260904094515 | 77 | 143 | 1.0 | 6.0 | 0.00 | 0.00 | 0.00 | 76 | 1008.1 |
| 20260904093014 | 77 | 89 | 2.0 | 6.0 | 0.00 | 0.00 | 0.00 | 76 | 1008.0 |
| 20260904091512 | 77 | 195 | 2.0 | 7.0 | 0.00 | 0.00 | 0.00 | 76 | 1007.9 |
| 20260904090011 | 77 | 154 | 1.0 | 7.0 | 0.00 | 0.00 | 0.00 | 76 | 1007.9 |
| 20260904084510 | 78 | 181 | 2.0 | 6.0 | 0.00 | 0.00 | 0.00 | 76 | 1007.9 |
| 20260904083009 | 78 | 131 | 2.0 | 8.0 | 0.00 | 0.00 | 0.00 | 77 | 1007.8 |
| 20260904081508 | 78 | 212 | 2.0 | 7.0 | 0.00 | 0.00 | 0.00 | 77 | 1007.7 |
| 20260904080007 | 78 | 103 | 2.0 | 8.0 | 0.00 | 0.00 | 0.00 | 76 | 1007.5 |
| 20260904074504 | 78 | 225 | 3.0 | 8.0 | 0.00 | 0.00 | 0.00 | 77 | 1007.5 |
| 20260904073003 | 79 | 138 | 0.0 | 7.0 | 0.00 | 0.00 | 0.00 | 77 | 1007.7 |
| 20260904071503 | 79 | 203 | 2.0 | 10.0 | 0.00 | 0.00 | 0.00 | 76 | 1007.7 |
| 20260904070117 | 79 | 222 | 1.0 | 9.0 | 0.00 | 0.00 | 0.00 | 76 | 1007.8 |
| 20260904064559 | 79 | 181 | 3.0 | 7.0 | 0.00 | 0.00 | 0.00 | 76 | 1007.8 |
| 20260904063100 | 79 | 318 | 1.0 | 7.0 | 0.00 | 0.00 | 0.00 | 75 | 1008.0 |
| 20260904061603 | 80 | 255 | 2.0 | 9.0 | 0.00 | 0.00 | 0.00 | 74 | 1008.0 |
| 20260904060054 | 80 | 287 | 2.0 | 6.0 | 0.00 | 0.00 | 0.00 | 74 | 1008.0 |
| 20260904054552 | 80 | 339 | 2.0 | 9.0 | 0.00 | 0.00 | 0.00 | 73 | 1007.8 |
| 20260904053050 | 81 | 200 | 1.0 | 9.0 | 0.00 | 0.00 | 0.00 | 73 | 1007.8 |
| 20260904051551 | 81 | 146 | 3.0 | 5.0 | 0.00 | 0.00 | 0.00 | 72 | 1007.8 |
| 20260904050045 | 81 | 133 | 2.0 | 0.0 | 0.00 | 0.00 | 0.00 | 71 | 1007.6 |
| 20260904044644 | 81 | 145 | 1.0 | 8.0 | 0.00 | 0.00 | 0.00 | 71 | 1007.7 |
| 20260904043055 | 82 | 210 | 3.0 | 8.0 | 0.00 | 0.00 | 0.00 | 70 | 1007.7 |
| 20260904041542 | 82 | 229 | 2.0 | 6.0 | 0.00 | 0.00 | 0.00 | 69 | 1007.9 |
| 20260904040042 | 82 | 141 | 2.0 | 6.0 | 0.00 | 0.00 | 0.00 | 68 | 1007.8 |
| 20260904034549 | 83 | 86 | 1.0 | 5.0 | 0.00 | 0.00 | 0.00 | 67 | 1007.9 |
| 20260904033042 | 83 | 283 | 0.0 | 8.0 | 0.00 | 0.00 | 0.00 | 66 | 1007.8 |
| 20260904031544 | 84 | 280 | 1.0 | 7.0 | 0.00 | 0.00 | 0.00 | 65 | 1007.8 |
| 20260904030040 | 84 | 66 | 2.0 | 8.0 | 0.00 | 0.00 | 0.00 | 64 | 1007.8 |
| 20260904024540 | 84 | 139 | 2.0 | 6.0 | 0.00 | 0.00 | 0.00 | 64 | 1007.6 |
| 20260904023041 | 85 | 238 | 3.0 | 9.0 | 0.00 | 0.00 | 0.00 | 63 | 1007.3 |
| 20260904021541 | 85 | 270 | 1.0 | 9.0 | 0.00 | 0.00 | 0.00 | 62 | 1007.1 |
| 20260904020037 | 85 | 131 | 2.0 | 8.0 | 0.00 | 0.00 | 0.00 | 62 | 1006.9 |
| 20260904014553 | 86 | 119 | 3.0 | 8.0 | 0.00 | 0.00 | 0.00 | 61 | 1006.7 |
| 20260904013036 | 86 | 111 | 1.0 | 6.0 | 0.00 | 0.00 | 0.00 | 61 | 1006.4 |
| 20260904011536 | 87 | 314 | 3.0 | 11.0 | 0.00 | 0.00 | 0.00 | 60 | 1006.0 |
| 20260904010040 | 88 | 143 | 2.0 | 8.0 | 0.00 | 0.00 | 0.00 | 58 | 1006.0 |
| 20260904004536 | 88 | 154 | 3.0 | 9.0 | 0.00 | 0.00 | 0.00 | 57 | 1005.7 |
| 20260904003035 | 89 | 211 | 2.0 | 10.0 | 0.00 | 0.00 | 0.00 | 55 | 1005.6 |
| 20260904001535 | 91 | 136 | 4.0 | 11.0 | 0.00 | 0.00 | 0.00 | 53 | 1005.6 |
| 20260904000110 | 91 | 92 | 3.0 | 11.0 | 0.00 | 0.00 | 0.00 | 52 | 1005.5 |
| 20260903234531 | 91 | 131 | 2.0 | 11.0 | 0.00 | 0.00 | 0.00 | 51 | 1005.5 |
| 20260903233032 | 93 | 224 | 3.0 | 11.0 | 0.00 | 0.00 | 0.00 | 50 | 1005.4 |
| 20260903231529 | 94 | 283 | 1.0 | 12.0 | 0.00 | 0.00 | 0.00 | 48 | 1005.3 |
| 20260903230031 | 95 | 190 | 3.0 | 10.0 | 0.00 | 0.00 | 0.00 | 47 | 1005.2 |
| 20260903224538 | 96 | 126 | 2.0 | 11.0 | 0.00 | 0.00 | 0.00 | 46 | 1005.3 |
| 20260903223028 | 97 | 133 | 3.0 | 10.0 | 0.00 | 0.00 | 0.00 | 44 | 1005.2 |
| 20260903221525 | 98 | 176 | 2.0 | 10.0 | 0.00 | 0.00 | 0.00 | 44 | 1005.3 |
| 20260903220023 | 97 | 250 | 1.0 | 5.0 | 0.00 | 0.00 | 0.00 | 44 | 1005.4 |
| 20260903214532 | 97 | 297 | 1.0 | 7.0 | 0.00 | 0.00 | 0.00 | 46 | 1005.6 |
| 20260903213032 | 97 | 226 | 1.0 | 9.0 | 0.00 | 0.00 | 0.00 | 45 | 1005.7 |
| 20260903211519 | 98 | 82 | 3.0 | 9.0 | 0.00 | 0.00 | 0.00 | 43 | 1005.6 |
| 20260903210019 | 98 | 262 | 1.0 | 7.0 | 0.00 | 0.00 | 0.00 | 44 | 1005.7 |
| 20260903204516 | 97 | 147 | 1.0 | 8.0 | 0.00 | 0.00 | 0.00 | 45 | 1006.0 |
| 20260903203014 | 97 | 154 | 4.0 | 9.0 | 0.00 | 0.00 | 0.00 | 44 | 1006.1 |
| 20260903201509 | 99 | 211 | 1.0 | 5.0 | 0.00 | 0.00 | 0.00 | 44 | 1006.3 |
| 20260903200008 | 98 | 139 | 1.0 | 8.0 | 0.00 | 0.00 | 0.00 | 45 | 1006.4 |
| 20260903194509 | 98 | 134 | 1.0 | 6.0 | 0.00 | 0.00 | 0.00 | 44 | 1006.6 |
| 20260903193002 | 98 | 115 | 1.0 | 6.0 | 0.00 | 0.00 | 0.00 | 45 | 1006.6 |
| 20260903191600 | 97 | 210 | 2.0 | 8.0 | 0.00 | 0.00 | 0.00 | 44 | 1006.8 |
| 20260903184553 | 96 | 221 | 0.0 | 8.0 | 0.00 | 0.00 | 0.00 | 47 | 1007.2 |
| 20260903183055 | 96 | 271 | 3.0 | 8.0 | 0.00 | 0.00 | 0.00 | 47 | 1007.4 |
| 20260903181550 | 95 | 149 | 3.0 | 7.0 | 0.00 | 0.00 | 0.00 | 49 | 1007.6 |
| 20260903180050 | 94 | 352 | 2.0 | 9.0 | 0.00 | 0.00 | 0.00 | 50 | 1007.8 |
| 20260903174542 | 95 | 147 | 1.0 | 10.0 | 0.00 | 0.00 | 0.00 | 49 | 1008.0 |
| 20260903173041 | 94 | 146 | 1.0 | 7.0 | 0.00 | 0.00 | 0.00 | 52 | 1008.2 |
| 20260903171539 | 92 | 136 | 1.0 | 6.0 | 0.00 | 0.00 | 0.00 | 53 | 1008.3 |
| 20260903170035 | 90 | 240 | 3.0 | 6.0 | 0.00 | 0.00 | 0.00 | 55 | 1008.5 |
| 20260903164529 | 89 | 159 | 1.0 | 8.0 | 0.00 | 0.00 | 0.00 | 58 | 1008.6 |
| 20260903163033 | 89 | 131 | 3.0 | 8.0 | 0.00 | 0.00 | 0.00 | 59 | 1008.7 |